Terminal Aerodrome Forecast
Issued by NWS

Home | Current Version | Previous Version | Text Only | Print | Product List | Glossary On
Versions: 1 2 3 4 5 6 7 8 9 10 11 12 13 14 15 16 17 18 19 20 21 22 23 24 25 26 27 28 29 30 31 32 33 34 35 36 37 38 39 40 41 42 43 44 45 46 47 48 49 50
000
FTUS45 KSLC 222331
TAFEVW
TAF
KEVW 222331Z 2300/2324 34015G25KT P6SM -SHRA VCTS BKN040CB OVC060
     FM230200 32010KT 6SM -RA BR BKN030 OVC100
     FM230500 VRB05KT P6SM -SHRA BKN040 OVC060
     FM231500 24009KT P6SM -SHRA BKN040 OVC060
     FM231800 25014G24KT P6SM SCT050 BKN100=

USA.gov is the U.S. government's official web portal to all federal, state and local government web resources and services.